Location: New Frontier Mobile Home Park
(32.8448°N, 116.9675°W)
Time: 23:04:00
(UTC+00:00)

Cosmos 2100 Rocket - Pass Details

Date: 14 July 2020
Orbit: 955 x 1002 km, 82.9° (Epoch: 05 August)

Event Time Altitude Azimuth Distance (km) Brightness Sun altitude
Exits shadow 09:28:45 52° 307° (NW) 1,208 4.4 -31.0°
Drops below altitude 10° 09:34:04 10° 356° (N) 2,727 7.0 -30.6°
Sets 09:36:38 0° 1° (N) 3,670 7.9 -30.3°
